Regional Weather Roundup
Issued by NWS Sioux Falls, SD

Home | Current Version | Previous Version | Graphics & Text | Print | Product List | Glossary On
Versions: 1 2 3 4 5 6 7 8 9 10 11 12 13 14 15 16 17 18 19 20 21 22 23 24 25 26 27 28 29 30 31 32 33 34 35 36 37 38 39 40 41 42 43 44 45 46 47 48 49 50
000
ASUS43 KFSD 052210
RWRFSD

WEATHER ROUNDUP FOR SE SOUTH DAKOTA/SW MINNESOTA/NW IOWA
NATIONAL WEATHER SERVICE SIOUX FALLS SD
400 PM CST THU MAR 05 2015

NOTE: "FAIR" INDICATES FEW OR NO CLOUDS BELOW 12,000 FEET WITH NO
SIGNIFICANT WEATHER AND OR OBSTRUCTIONS TO VISIBILITY.


SDZ038>040-050-052>070-052300-
SOUTHEAST SOUTH DAKOTA

CITY           SKY/WX    TMP DP  RH WIND       PRES   REMARKS
CHAMBERLAIN    MOSUNNY   37  13  36 S9        30.17F
HURON          SUNNY     32  10  40 S14       30.21F WCI  22
MADISON        FAIR      27  10  50 S18       30.24F WCI  13
MITCHELL       SUNNY     36   3  25 S13       30.24F
SIOUX FALLS    MOSUNNY   29   4  34 S15G21    30.29F WCI  18
WINNER         MOCLDY    42  11  28 SW9       30.15F
YANKTON        SUNNY     36   3  25 S15       30.29F
$$

MNZ071-072-080-081-089-090-097-098-052300-
SOUTHWEST MINNESOTA

CITY           SKY/WX    TMP DP  RH WIND       PRES   REMARKS
FAIRMONT       SUNNY     19   3  49 SW10      30.38F WCI   8
JACKSON        SUNNY     21   5  49 S10       30.36F WCI  10
LUVERNE        SUNNY     28   9  43 S10       30.32F WCI  19
MARSHALL       SUNNY     19   5  53 S14       30.34F WCI   6
MONTEVIDEO     SUNNY     25   7  46 SW9G17    30.33F WCI  15
PIPESTONE      SUNNY     21   9  58 SW13      30.28F WCI   9
REDWOOD FALLS  SUNNY     19   2  47 S14       30.36F WCI   6
TRACY          SUNNY     21   7  54 S12       30.33F WCI  10
WINDOM         SUNNY     21   5  49 S10       30.34F WCI  10
WORTHINGTON    SUNNY     21   7  53 S12       30.34F WCI   9
$$

IAZ001>003-012>014-020>022-031-032-NEZ013-014-SDZ071-052300-
NORTHWEST IOWA

CITY           SKY/WX    TMP DP  RH WIND       PRES   REMARKS
CHEROKEE       SUNNY     24   6  47 S12       30.39F WCI  12
DENISON        SUNNY     25   3  39 SW13      30.39F WCI  13
ESTHERVILLE    SUNNY     18   4  54 S9        30.38F WCI   7
LE MARS        SUNNY     30   5  34 SW15      30.36F WCI  19
ORANGE CITY    SUNNY     28   3  34 S12G18    30.34F WCI  18
SHELDON        SUNNY     25   5  42 S15       30.33F WCI  12
SIOUX CITY     SUNNY     33   4  29 S14G24    30.37F WCI  23
SPENCER        SUNNY     22   5  48 S12       30.38F WCI  10
STORM LAKE     SUNNY     21   3  45 SW12      30.39S WCI   9
$$

ABBREVIATIONS USED IN REMARKS
   TC - TEMPERATURE IN CELSIUS
  WCI - WIND CHILL INDEX
   HX - HEAT INDEX
  VSB - VISIBILITY



USA.gov is the U.S. government's official web portal to all federal, state and local government web resources and services.